Powrót do katalogu

STARLINK-31843

AktywnyŁącznośćVLEO
NORAD 59722·PAYLOAD·🇺🇸 United States

Wystrzelony May 10, 2024 z Vandenberg Space Force Base

Loading…

Następne Przeloty (najbliższe 24 godziny)

TLE

ŚwieżeSource: CelesTrak SupGP

Epoka: Sep 15, 2026, 02:11 UTC

1 59722C 24088Q   26258.09145833  .00069465  00000+0  22335-2 0  2587
2 59722  53.1605 339.2516 0001180  82.9173 261.4916 15.31671697    12

Śledź STARLINK-31843 w czasie rzeczywistym z AllMySat

Download on the App Store